Вернуться в каталог

THORAD AGENA D DEB

АктивенPO
NORAD 4754·DEBRIS·🇺🇸 United States

Запущен Apr 8, 1970 с Vandenberg Space Force Base

Loading…

Ближайшие Пролёты

TLE

Source: Space-Track
1 04754U 70025DC  26218.84691940  .00003247  00000-0  11100-2 0  9995
2 04754  99.5896 188.0807 0013943 113.0001 247.2654 14.37072518841085

Отслеживайте THORAD AGENA D DEB в реальном времени с AllMySat

Download on the App Store